Location: Newark
(46.7636°N, 1.8358°W)
Time: 06:37:46
(UTC+00:00)

Vanguard 3 - All Passes

Search period start: 18 October 2019 00:00
Search period end: 28 October 2019 00:00
Orbit: 508 x 3262 km, 33.3° (Epoch: 17 October)

Date Brightness Start Highest point End Pass type
(mag) Time Alt. Az. Time Alt. Az. Time Alt. Az.
18 Oct - 00:52:24 10° S 00:53:28 11° SSE 00:54:34 10° SE night (unlit)
18 Oct - 03:00:40 10° SW 03:03:59 19° S 03:08:22 10° SE visible
18 Oct - 05:11:35 10° SW 05:15:17 16° SSW 05:20:02 10° SSE visible
19 Oct - 01:48:11 10° SSW 01:50:37 15° S 01:53:31 10° SE visible
19 Oct - 03:58:13 10° SW 04:01:29 16° S 04:05:43 10° SSE visible
20 Oct - 00:36:22 10° S 00:37:22 11° SSE 00:38:25 10° SSE night (unlit)
20 Oct - 02:45:16 10° SW 02:47:57 16° S 02:51:15 10° SE visible
20 Oct - 04:57:27 10° SSW 04:59:09 11° SSW 05:01:01 10° S visible
21 Oct - 01:32:34 10° SSW 01:34:36 14° S 01:36:52 10° SE night (unlit)
21 Oct - 03:43:23 10° SSW 03:45:26 12° S 03:47:48 10° SSE visible
22 Oct - 00:20:13 10° S 00:21:18 11° S 00:22:25 10° SSE night (unlit)
22 Oct - 02:30:03 10° SSW 02:31:56 13° S 02:34:02 10° SSE visible
23 Oct - 01:16:59 10° SSW 01:18:34 12° S 01:20:15 10° SSE night (unlit)
24 Oct - 00:03:59 10° SSW 00:05:16 11° S 00:06:33 10° SSE night (unlit)
24 Oct - 22:51:02 10° S 22:51:56 11° S 22:52:48 10° SSE night (unlit)
25 Oct - 01:01:30 10° SSW 01:02:32 11° S 01:03:35 10° S night (unlit)
25 Oct - 23:47:40 10° SSW 23:49:14 12° S 23:50:45 10° SSE night (unlit)
26 Oct - 22:33:47 10° SSW 22:35:55 13° S 22:37:48 10° SSE night (unlit)
27 Oct - 21:19:51 10° SSW 21:22:28 13° S 21:24:42 10° SE visible
27 Oct - 23:31:17 10° SW 23:33:12 13° S 23:34:58 10° SSE night (unlit)
